Weather History for Oelwein, IA

Change the Weather History Date:

Thursday, July 3, 2014

  Actual Average Record
Temperature  
Mean Temperature 62 °F -  
Max Temperature 73 °F 82 °F 96 °F (1949)
Min Temperature 50 °F 61 °F 50 °F (1961)
Degree Days  
Heating Degree Days 4    
Growing Degree Days 12 (Base 50)    
Moisture  
Dew Point 22 °F    
Average Humidity 60    
Maximum Humidity 100    
Minimum Humidity 4    
Precipitation  
Precipitation 0.00 in - - ()
Sea Level Pressure  
Sea Level Pressure 30.18 in    
Wind  
Wind Speed 5 mph (NW)    
Max Wind Speed 13 mph    
Max Gust Speed 17 mph    
Visibility 8 miles    
Events Fog    
Averages and records for this station are not official NWS values.
T = Trace of Precipitation, MM = Missing Value Source: NWS Daily Summary

Daily Weather History Graph

Daily Weather History Graph

Search for Another Location

Airport:

Trip Planner

Search our weather history database for the weather conditions in past years. The results will help you decide how hot, cold, wet, or windy it might be!

Date:

Astronomy

Jul. 03, 2014 Rise Set
Actual Time 5:34 AM CDT 8:49 PM CDT
Civil Twilight 5:00 AM CDT 9:23 PM CDT
Nautical Twilight 4:15 AM CDT 10:08 PM CDT
Astronomical Twilight 3:20 AM CDT 11:03 PM CDT
Moon 11:43 AM CDT (7/3) No Moon Set
Length of Visible Light 16h 23m
Length of Day
15h 14m
Waxing Crescent, 33% of the Moon is Illuminated
Jul 3
Waxing Crescent
Jul 5
First Quarter
Jul 12
Full
Jul 18
Last Quarter
Jul 26
New

Hourly Weather History & Observations

Time (CDT) Temp. Dew Point Humidity Pressure Visibility Wind Dir Wind Speed Gust Speed Precip Events Conditions
12:15 AM 53.6 °F 53.6 °F 100% 30.10 in 10.0 mi West 5.8 mph - N/A   Clear
12:35 AM 53.6 °F 53.6 °F 100% 30.10 in 10.0 mi WNW 4.6 mph - N/A   Clear
12:55 AM 53.6 °F 53.6 °F 100% 30.10 in 10.0 mi WNW 3.5 mph - N/A   Clear
1:15 AM 53.6 °F 53.6 °F 100% 30.11 in 10.0 mi West 5.8 mph - N/A   Clear
1:35 AM 51.8 °F 51.8 °F 100% 30.11 in 10.0 mi West 5.8 mph - N/A   Clear
1:55 AM 51.8 °F 51.8 °F 100% 30.11 in 10.0 mi West 4.6 mph - N/A   Clear
2:15 AM 51.8 °F 51.8 °F 100% 30.11 in 10.0 mi West 3.5 mph - N/A   Clear
2:35 AM 51.8 °F 51.8 °F 100% 30.11 in 10.0 mi Calm Calm - N/A   Clear
2:55 AM 51.8 °F 51.8 °F 100% 30.11 in 10.0 mi Calm Calm - N/A   Clear
3:15 AM 50.0 °F 50.0 °F 100% 30.11 in 3.0 mi Calm Calm - N/A   Clear
3:35 AM 51.8 °F 51.8 °F 100% 30.11 in 10.0 mi Calm Calm - N/A   Clear
3:55 AM 51.8 °F 51.8 °F 100% 30.12 in 1.0 mi Calm Calm - N/A   Clear
4:15 AM 51.8 °F 51.8 °F 100% 30.12 in 1.0 mi WNW 3.5 mph - N/A   Clear
4:35 AM 50.0 °F 50.0 °F 100% 30.12 in 0.5 mi Calm Calm - N/A   Mostly Cloudy
4:55 AM 50.0 °F 50.0 °F 100% 30.13 in 0.5 mi West 3.5 mph - N/A   Overcast
5:15 AM 50.0 °F 50.0 °F 100% 30.13 in 0.5 mi West 3.5 mph - N/A   Overcast
5:35 AM 50.0 °F 50.0 °F 100% 30.14 in 0.2 mi Calm Calm - N/A Fog Fog
5:55 AM 50.0 °F 50.0 °F 100% 30.15 in 0.2 mi Calm Calm - N/A Fog Fog
6:15 AM 50.0 °F 50.0 °F 100% 30.15 in 0.2 mi Calm Calm - N/A Fog Fog
6:35 AM 50.0 °F 50.0 °F 100% 30.16 in 0.2 mi WNW 3.5 mph - N/A Fog Fog
6:55 AM 51.8 °F 51.8 °F 100% 30.17 in 0.5 mi NW 4.6 mph - N/A Fog Fog
7:15 AM 53.6 °F 53.6 °F 100% 30.17 in 10.0 mi WNW 5.8 mph - N/A   Clear
7:35 AM 55.4 °F 55.4 °F 100% 30.17 in 10.0 mi WNW 5.8 mph - N/A   Clear
7:55 AM 57.2 °F 57.2 °F 100% 30.18 in 10.0 mi NW 5.8 mph - N/A   Clear
8:15 AM 59.0 °F 59.0 °F 100% 30.18 in 10.0 mi NW 6.9 mph - N/A   Clear
8:35 AM 60.8 °F 60.8 °F 100% 30.18 in 10.0 mi NNW 4.6 mph - N/A   Clear
8:55 AM 62.6 °F 62.6 °F 100% 30.18 in 10.0 mi NNW 5.8 mph - N/A   Mostly Cloudy
9:15 AM 64.4 °F 64.4 °F 100% 30.18 in 10.0 mi NW 4.6 mph - N/A   Partly Cloudy
9:35 AM 66.2 °F 64.4 °F 94% 30.18 in 10.0 mi NW 6.9 mph - N/A   Clear
9:55 AM 66.2 °F 57.2 °F 73% 30.18 in 10.0 mi NNW 6.9 mph - N/A   Clear
10:15 AM 68.0 °F 57.2 °F 68% 30.18 in 10.0 mi NW 8.1 mph - N/A   Clear
10:35 AM 68.0 °F 53.6 °F 60% 30.18 in 10.0 mi NW 9.2 mph - N/A   Clear
10:55 AM 69.8 °F 53.6 °F 56% 30.19 in 10.0 mi NW 6.9 mph - N/A   Clear
11:15 AM 69.8 °F 37.4 °F 31% 30.19 in 10.0 mi NW 11.5 mph - N/A   Clear
11:35 AM 69.8 °F -38.2 °F 4% 30.19 in 10.0 mi NNW 10.4 mph - N/A   Scattered Clouds
11:55 AM 69.8 °F -38.2 °F 4% 30.19 in 10.0 mi NW 9.2 mph - N/A   Mostly Cloudy
12:15 PM 69.8 °F -38.2 °F 4% 30.20 in - NNW 8.1 mph - N/A   Mostly Cloudy
12:35 PM 71.6 °F -38.2 °F 4% 30.20 in 10.0 mi Variable 5.8 mph 12.7 mph N/A   Overcast
12:55 PM 71.6 °F -36.4 °F 4% 30.20 in 10.0 mi NNW 12.7 mph - N/A   Mostly Cloudy
1:15 PM 69.8 °F -38.2 °F 4% 30.21 in 10.0 mi NW 9.2 mph 17.3 mph N/A   Mostly Cloudy
1:35 PM 71.6 °F -36.4 °F 4% 30.21 in 10.0 mi NNW 11.5 mph - N/A   Mostly Cloudy
1:55 PM 71.6 °F -36.4 °F 4% 30.20 in 10.0 mi North 9.2 mph - N/A   Overcast
2:15 PM 71.6 °F -36.4 °F 4% 30.20 in 10.0 mi North 10.4 mph - N/A   Overcast
2:35 PM 71.6 °F -36.4 °F 4% 30.20 in 10.0 mi North 5.8 mph - N/A   Overcast
2:55 PM 71.6 °F -36.4 °F 4% 30.20 in 10.0 mi NNW 5.8 mph 13.8 mph N/A   Mostly Cloudy
3:15 PM 71.6 °F -38.2 °F 4% 30.20 in 10.0 mi North 8.1 mph - N/A   Mostly Cloudy
3:35 PM 71.6 °F -36.4 °F 4% 30.20 in 10.0 mi NW 6.9 mph 12.7 mph N/A   Mostly Cloudy
3:55 PM 71.6 °F -38.2 °F 4% 30.20 in 10.0 mi North 8.1 mph 13.8 mph N/A   Mostly Cloudy
4:15 PM 73.4 °F -36.4 °F 4% 30.20 in 10.0 mi North 8.1 mph - N/A   Mostly Cloudy
4:35 PM 71.6 °F -36.4 °F 4% 30.20 in 10.0 mi ENE 6.9 mph - N/A   Mostly Cloudy
4:55 PM 71.6 °F -36.4 °F 4% 30.20 in 10.0 mi NNE 5.8 mph - N/A   Mostly Cloudy
5:15 PM 71.6 °F -36.4 °F 4% 30.20 in 10.0 mi North 9.2 mph - N/A   Mostly Cloudy
5:35 PM 71.6 °F -36.4 °F 4% 30.19 in 10.0 mi NNW 5.8 mph - N/A   Mostly Cloudy
5:55 PM 71.6 °F -36.4 °F 4% 30.19 in 10.0 mi NW 4.6 mph - N/A   Overcast
6:15 PM 71.6 °F -36.4 °F 4% 30.20 in 10.0 mi NW 5.8 mph - N/A   Overcast
6:35 PM 71.6 °F -36.4 °F 4% 30.20 in 10.0 mi NNW 4.6 mph - N/A   Scattered Clouds
6:55 PM 71.6 °F -38.2 °F 4% 30.20 in 10.0 mi North 4.6 mph - N/A   Clear
7:15 PM 71.6 °F -38.2 °F 4% 30.20 in 10.0 mi North 4.6 mph - N/A   Clear
7:35 PM 69.8 °F -38.2 °F 4% 30.20 in 10.0 mi North 3.5 mph - N/A   Clear
7:55 PM 69.8 °F -38.2 °F 4% 30.21 in 10.0 mi Calm Calm - N/A   Clear
8:15 PM 69.8 °F 60.8 °F 73% 30.21 in 10.0 mi Calm Calm - N/A   Clear
8:35 PM 68.0 °F 59.0 °F 73% 30.21 in 10.0 mi Calm Calm - N/A   Clear
8:55 PM 66.2 °F 57.2 °F 73% 30.21 in 10.0 mi Calm Calm - N/A   Clear
9:15 PM 66.2 °F 55.4 °F 68% 30.21 in 10.0 mi Calm Calm - N/A   Clear
9:35 PM 64.4 °F 59.0 °F 83% 30.22 in 10.0 mi Calm Calm - N/A   Clear
9:55 PM 64.4 °F 60.8 °F 88% 30.22 in 10.0 mi NNW 3.5 mph - N/A   Clear
10:15 PM 62.6 °F 59.0 °F 88% 30.23 in 10.0 mi Calm Calm - N/A   Clear
10:35 PM 60.8 °F 57.2 °F 88% 30.23 in 9.0 mi Calm Calm - N/A   Clear
10:55 PM 62.6 °F 55.4 °F 77% 30.23 in 10.0 mi NNW 3.5 mph - N/A   Clear
11:15 PM 59.0 °F 59.0 °F 100% 30.23 in 10.0 mi Calm Calm - N/A   Clear
11:35 PM 59.0 °F 59.0 °F 100% 30.24 in 10.0 mi NW 3.5 mph - N/A   Clear
11:55 PM 59.0 °F 59.0 °F 100% 30.24 in 7.0 mi Calm Calm - N/A   Clear